Weather History for Eureka, NV

Change the Weather History Date:

Wednesday, January 9, 2013

  Actual Average Record
Temperature  
Mean Temperature 30 °F 23 °F  
Max Temperature 46 °F 37 °F 61 °F (1990)
Min Temperature 13 °F 9 °F -21 °F (1987)
Degree Days  
Heating Degree Days 35 42  
Month to date heating degree days 460 378  
Since 1 July heating degree days 2948 3384  
Cooling Degree Days 0 0  
Month to date cooling degree days 0 0  
Year to date cooling degree days 0 0  
Moisture  
Dew Point 22 °F    
Average Humidity 75    
Maximum Humidity 96    
Minimum Humidity 53    
Precipitation  
Precipitation 0.00 in 0.02 in 0.50 in (1993)
Month to date precipitation 0.00 0.21  
Year to date precipitation 0.00 0.21  
Sea Level Pressure  
Sea Level Pressure 30.03 in    
Wind  
Wind Speed 10 mph (South)    
Max Wind Speed 31 mph    
Max Gust Speed 40 mph    
T = Trace of Precipitation, MM = Missing Value Source: NWS Daily Summary

Daily Weather History Graph

Daily Weather History Graph

Search for Another Location

Airport:

Trip Planner

Search our weather history database for the weather conditions in past years. The results will help you decide how hot, cold, wet, or windy it might be!

Date:

Astronomy

Jan. 09, 2013 Rise Set
Actual Time 7:04 AM PST 4:38 PM PST
Civil Twilight 6:34 AM PST 5:08 PM PST
Nautical Twilight 6:01 AM PST 5:41 PM PST
Astronomical Twilight 5:28 AM PST 6:14 PM PST
Moon 4:48 AM PST (1/9) 2:44 PM PST (1/9)
Length of Visible Light 10h 33m
Length of Day
9h 33m
Waning Crescent, 6% of the Moon is Illuminated
Jan 9
Waning Crescent
Jan 11
New
Jan 18
First Quarter
Jan 26
Full
Feb 3
Last Quarter

Hourly Weather History & Observations

Time (PST) Temp. Windchill Dew Point Humidity Pressure Visibility Wind Dir Wind Speed Gust Speed Precip Events Conditions
12:53 AM 21.9 °F 13.4 °F 19.0 °F 89% 30.30 in - SW 6.9 mph - N/A   Unknown
1:53 AM 19.9 °F 10.1 °F 17.1 °F 89% 30.29 in - SW 8.1 mph - N/A   Unknown
2:53 AM 17.1 °F 6.6 °F 15.1 °F 92% 30.27 in - SSW 8.1 mph - N/A   Unknown
3:53 AM 17.1 °F 10.0 °F 14.0 °F 88% 30.26 in - SSW 4.6 mph - N/A   Unknown
4:53 AM 15.1 °F - 12.0 °F 88% 30.27 in - Calm Calm - N/A   Unknown
5:53 AM 15.1 °F 4.2 °F 12.0 °F 88% 30.29 in - SW 8.1 mph - N/A   Unknown
6:53 AM 14.0 °F 3.9 °F 12.0 °F 92% 30.30 in - SW 6.9 mph - N/A   Unknown
7:53 AM 17.1 °F 10.0 °F 14.0 °F 88% 30.27 in - SSW 4.6 mph - N/A   Unknown
8:53 AM 23.0 °F 14.7 °F 19.9 °F 88% 30.24 in - West 6.9 mph - N/A   Unknown
9:53 AM 28.9 °F 25.2 °F 23.0 °F 78% 30.17 in - WSW 3.5 mph - N/A   Unknown
10:53 AM 34.0 °F - 24.1 °F 67% 30.10 in - Calm Calm - N/A   Unknown
11:53 AM 42.1 °F 40.2 °F 28.0 °F 58% 30.02 in - NE 3.5 mph - N/A   Unknown
12:53 PM - - - N/A% 29.98 in - North - - N/A   Unknown
1:53 PM 39.9 °F 33.9 °F 28.0 °F 63% 29.97 in - NNE 9.2 mph - N/A   Unknown
2:53 PM 41.0 °F 37.1 °F 28.0 °F 60% 29.95 in - North 5.8 mph - N/A   Unknown
3:53 PM 42.1 °F 34.9 °F 26.1 °F 53% 29.93 in - SE 13.8 mph - N/A   Unknown
4:53 PM 39.9 °F 30.0 °F 27.0 °F 60% 29.91 in - ESE 21.9 mph - N/A   Unknown
5:53 PM 41.0 °F 33.1 °F 27.0 °F 57% 29.88 in - East 15.0 mph - N/A   Unknown
6:53 PM 39.9 °F 33.4 °F 27.0 °F 60% 29.87 in - East 10.4 mph - N/A   Unknown
7:53 PM 42.1 °F - 26.1 °F 53% 29.81 in - North - - N/A   Unknown
8:53 PM 39.9 °F 30.5 °F 27.0 °F 60% 29.74 in - South 19.6 mph 27.6 mph N/A   Unknown
9:53 PM 39.9 °F 28.6 °F 26.1 °F 58% 29.69 in - South 28.8 mph 35.7 mph N/A   Unknown
10:53 PM 39.9 °F 29.0 °F 26.1 °F 58% 29.66 in - South 26.5 mph 34.5 mph N/A   Unknown
11:53 PM 37.9 °F 28.5 °F 26.1 °F 62% 29.62 in - South 17.3 mph - N/A   Unknown